Time,TemperatureF,DewpointF,PressureIn,WindDirection,WindDirectionDegrees,WindSpeedMPH,WindSpeedGustMPH,Humidity,HourlyPrecipIn,Conditions,Clouds,dailyrainin,SoftwareType,DateUTC
2013-02-27 00:01:00,43.0,39.0,30.16,South,174,0.0,-999.0,85,-99.99,,,-99.99,,2013-02-27 08:01:00,
2013-02-27 00:11:00,43.0,39.0,30.16,South,174,0.0,-999.0,85,-99.99,,,-99.99,,2013-02-27 08:11:00,
2013-02-27 00:21:00,42.0,38.0,30.16,South,185,0.0,-999.0,87,-99.99,,,-99.99,,2013-02-27 08:21:00,
2013-02-27 00:31:00,42.0,39.0,30.17,South,185,2.0,-999.0,89,-99.99,,,-99.99,,2013-02-27 08:31:00,
2013-02-27 00:41:00,42.0,39.0,30.17,South,185,2.0,-999.0,89,-99.99,,,-99.99,,2013-02-27 08:41:00,
2013-02-27 00:52:00,41.0,38.0,30.17,SSE,155,2.0,-999.0,90,-99.99,,,-99.99,,2013-02-27 08:52:00,
2013-02-27 01:01:00,41.0,39.0,30.17,South,182,0.0,-999.0,92,-99.99,,,-99.99,,2013-02-27 09:01:00,
2013-02-27 01:11:00,41.0,39.0,30.17,South,182,0.0,-999.0,92,-99.99,,,-99.99,,2013-02-27 09:11:00,
2013-02-27 01:21:00,41.0,39.0,30.18,South,182,0.0,-999.0,92,-99.99,,,-99.99,,2013-02-27 09:21:00,
2013-02-27 01:32:00,41.0,39.0,30.18,South,182,0.0,-999.0,93,-99.99,,,-99.99,,2013-02-27 09:32:00,
2013-02-27 01:41:00,41.0,39.0,30.18,South,182,0.0,-999.0,93,-99.99,,,-99.99,,2013-02-27 09:41:00,
2013-02-27 01:51:00,41.0,39.0,30.19,South,181,1.0,-999.0,93,-99.99,,,-99.99,,2013-02-27 09:51:00,
2013-02-27 02:01:00,40.0,38.0,30.19,SSW,205,2.0,-999.0,94,-99.99,,,-99.99,,2013-02-27 10:01:00,
2013-02-27 02:12:00,40.0,38.0,30.19,SSW,205,2.0,-999.0,94,-99.99,,,-99.99,,2013-02-27 10:12:00,
2013-02-27 02:21:00,40.0,38.0,30.18,South,183,2.0,-999.0,94,-99.99,,,-99.99,,2013-02-27 10:21:00,
2013-02-27 02:32:00,40.0,38.0,30.19,South,174,2.0,-999.0,94,-99.99,,,-99.99,,2013-02-27 10:32:00,
2013-02-27 02:41:00,40.0,38.0,30.19,South,174,2.0,-999.0,94,-99.99,,,-99.99,,2013-02-27 10:41:00,
2013-02-27 02:52:00,40.0,38.0,30.19,South,178,1.0,-999.0,94,-99.99,,,-99.99,,2013-02-27 10:52:00,
2013-02-27 03:01:00,40.0,38.0,30.19,South,178,1.0,-999.0,94,-99.99,,,-99.99,,2013-02-27 11:01:00,
2013-02-27 03:11:00,40.0,38.0,30.19,South,178,1.0,-999.0,94,-99.99,,,-99.99,,2013-02-27 11:11:00,
2013-02-27 03:22:00,40.0,39.0,30.19,SSW,200,3.0,-999.0,95,-99.99,,,-99.99,,2013-02-27 11:22:00,
2013-02-27 03:31:00,39.0,38.0,30.19,SSE,148,1.0,-999.0,95,-99.99,,,-99.99,,2013-02-27 11:31:00,
2013-02-27 03:42:00,39.0,38.0,30.19,SSE,148,1.0,-999.0,95,-99.99,,,-99.99,,2013-02-27 11:42:00,
2013-02-27 03:52:00,39.0,38.0,30.19,SSE,148,1.0,-999.0,95,-99.99,,,-99.99,,2013-02-27 11:52:00,
2013-02-27 04:01:00,40.0,39.0,30.20,South,188,1.0,-999.0,95,-99.99,,,-99.99,,2013-02-27 12:01:00,
2013-02-27 04:12:00,40.0,39.0,30.20,South,188,1.0,-999.0,95,-99.99,,,-99.99,,2013-02-27 12:12:00,
2013-02-27 04:22:00,40.0,39.0,30.21,SSE,165,1.0,-999.0,95,-99.99,,,-99.99,,2013-02-27 12:22:00,
2013-02-27 04:32:00,40.0,39.0,30.21,SSE,165,0.0,-999.0,95,-99.99,,,-99.99,,2013-02-27 12:32:00,
2013-02-27 04:41:00,40.0,39.0,30.21,SSE,165,0.0,-999.0,95,-99.99,,,-99.99,,2013-02-27 12:41:00,
2013-02-27 04:52:00,40.0,39.0,30.22,SSE,166,0.0,-999.0,95,-99.99,,,-99.99,,2013-02-27 12:52:00,
2013-02-27 05:01:00,40.0,39.0,30.22,SSE,165,0.0,-999.0,95,-99.99,,,-99.99,,2013-02-27 13:01:00,
2013-02-27 05:11:00,40.0,39.0,30.22,SSE,165,0.0,-999.0,95,-99.99,,,-99.99,,2013-02-27 13:11:00,
2013-02-27 05:21:00,40.0,39.0,30.23,SSE,165,0.0,-999.0,95,-99.99,,,-99.99,,2013-02-27 13:21:00,
2013-02-27 05:31:00,40.0,39.0,30.24,SSE,165,0.0,-999.0,95,-99.99,,,-99.99,,2013-02-27 13:31:00,
2013-02-27 05:41:00,40.0,39.0,30.24,SSE,165,0.0,-999.0,95,-99.99,,,-99.99,,2013-02-27 13:41:00,
2013-02-27 05:52:00,40.0,39.0,30.24,SSE,165,0.0,-999.0,95,-99.99,,,-99.99,,2013-02-27 13:52:00,
2013-02-27 06:01:00,40.0,39.0,30.25,SSE,165,0.0,-999.0,95,-99.99,,,-99.99,,2013-02-27 14:01:00,
2013-02-27 06:11:00,40.0,39.0,30.25,SSE,165,0.0,-999.0,95,-99.99,,,-99.99,,2013-02-27 14:11:00,
2013-02-27 06:21:00,40.0,39.0,30.26,SSE,165,0.0,-999.0,96,-99.99,,,-99.99,,2013-02-27 14:21:00,
2013-02-27 06:31:00,40.0,39.0,30.26,SSE,165,0.0,-999.0,96,-99.99,,,-99.99,,2013-02-27 14:31:00,
2013-02-27 06:41:00,40.0,39.0,30.26,SSE,165,0.0,-999.0,96,-99.99,,,-99.99,,2013-02-27 14:41:00,
2013-02-27 06:52:00,40.0,39.0,30.26,SSE,166,0.0,-999.0,95,-99.99,,,-99.99,,2013-02-27 14:52:00,
2013-02-27 07:01:00,40.0,39.0,30.26,SSE,165,0.0,-999.0,95,-99.99,,,-99.99,,2013-02-27 15:01:00,
2013-02-27 07:11:00,40.0,39.0,30.26,SSE,165,0.0,-999.0,95,-99.99,,,-99.99,,2013-02-27 15:11:00,
2013-02-27 07:21:00,40.0,39.0,30.27,SSE,165,0.0,-999.0,95,-99.99,,,-99.99,,2013-02-27 15:21:00,
2013-02-27 07:31:00,40.0,39.0,30.27,SSE,165,0.0,-999.0,95,-99.99,,,-99.99,,2013-02-27 15:31:00,
2013-02-27 07:41:00,40.0,39.0,30.27,SSE,165,0.0,-999.0,95,-99.99,,,-99.99,,2013-02-27 15:41:00,
2013-02-27 07:52:00,40.0,39.0,30.27,SSE,165,0.0,-999.0,96,-99.99,,,-99.99,,2013-02-27 15:52:00,
2013-02-27 08:01:00,40.0,39.0,30.27,SSE,165,0.0,-999.0,96,-99.99,,,-99.99,,2013-02-27 16:01:00,
2013-02-27 08:11:00,40.0,39.0,30.27,SSE,165,0.0,-999.0,96,-99.99,,,-99.99,,2013-02-27 16:11:00,
2013-02-27 08:21:00,40.0,39.0,30.27,SSE,165,0.0,-999.0,96,-99.99,,,-99.99,,2013-02-27 16:21:00,
2013-02-27 08:31:00,40.0,39.0,30.27,SSE,165,0.0,-999.0,96,-99.99,,,-99.99,,2013-02-27 16:31:00,
2013-02-27 08:41:00,40.0,39.0,30.27,SSE,165,0.0,-999.0,96,-99.99,,,-99.99,,2013-02-27 16:41:00,
2013-02-27 08:52:00,41.0,40.0,30.27,ENE,76,0.0,-999.0,96,-99.99,,,-99.99,,2013-02-27 16:52:00,
2013-02-27 09:01:00,41.0,40.0,30.27,ENE,76,0.0,-999.0,96,-99.99,,,-99.99,,2013-02-27 17:01:00,
2013-02-27 09:11:00,41.0,40.0,30.27,ENE,76,0.0,-999.0,96,-99.99,,,-99.99,,2013-02-27 17:11:00,
2013-02-27 09:21:00,42.0,41.0,30.26,ESE,118,1.0,-999.0,96,-99.99,,,-99.99,,2013-02-27 17:21:00,
2013-02-27 09:32:00,42.0,41.0,30.25,South,173,2.0,-999.0,96,-99.99,,,-99.99,,2013-02-27 17:32:00,
2013-02-27 09:41:00,42.0,41.0,30.25,South,173,2.0,-999.0,96,-99.99,,,-99.99,,2013-02-27 17:41:00,
2013-02-27 09:52:00,43.0,42.0,30.25,South,171,1.0,-999.0,96,-99.99,,,-99.99,,2013-02-27 17:52:00,
2013-02-27 10:01:00,43.0,42.0,30.25,SSE,156,1.0,-999.0,95,-99.99,,,-99.99,,2013-02-27 18:01:00,
2013-02-27 10:11:00,43.0,42.0,30.25,SSE,156,1.0,-999.0,95,-99.99,,,-99.99,,2013-02-27 18:11:00,
2013-02-27 10:21:00,43.0,41.0,30.24,SSE,160,1.0,-999.0,94,-99.99,,,-99.99,,2013-02-27 18:21:00,
2013-02-27 10:31:00,44.0,42.0,30.24,South,185,1.0,-999.0,94,-99.99,,,-99.99,,2013-02-27 18:31:00,
2013-02-27 10:42:00,44.0,42.0,30.24,South,185,1.0,-999.0,94,-99.99,,,-99.99,,2013-02-27 18:42:00,
2013-02-27 10:52:00,45.0,43.0,30.24,SSW,198,2.0,-999.0,92,-99.99,,,-99.99,,2013-02-27 18:52:00,
2013-02-27 11:01:00,45.0,42.0,30.25,SW,217,1.0,-999.0,90,-99.99,,,-99.99,,2013-02-27 19:01:00,
2013-02-27 11:11:00,45.0,42.0,30.25,SW,217,1.0,-999.0,90,-99.99,,,-99.99,,2013-02-27 19:11:00,
2013-02-27 11:21:00,45.0,42.0,30.26,SSW,206,0.0,-999.0,88,-99.99,,,-99.99,,2013-02-27 19:21:00,
2013-02-27 11:32:00,45.0,42.0,30.27,WSW,250,1.0,-999.0,89,-99.99,,,-99.99,,2013-02-27 19:32:00,
2013-02-27 11:41:00,45.0,42.0,30.27,WSW,250,1.0,-999.0,89,-99.99,,,-99.99,,2013-02-27 19:41:00,
2013-02-27 11:52:00,46.0,43.0,30.27,SW,221,1.0,-999.0,88,-99.99,,,-99.99,,2013-02-27 19:52:00,
2013-02-27 12:01:00,46.0,42.0,30.27,South,182,1.0,-999.0,86,-99.99,,,-99.99,,2013-02-27 20:01:00,
2013-02-27 12:11:00,46.0,42.0,30.27,South,182,1.0,-999.0,86,-99.99,,,-99.99,,2013-02-27 20:11:00,
2013-02-27 12:21:00,46.0,42.0,30.27,South,181,1.0,-999.0,85,-99.99,,,-99.99,,2013-02-27 20:21:00,
2013-02-27 12:31:00,47.0,42.0,30.27,South,177,1.0,-999.0,84,-99.99,,,-99.99,,2013-02-27 20:31:00,
2013-02-27 12:41:00,47.0,42.0,30.27,South,177,1.0,-999.0,84,-99.99,,,-99.99,,2013-02-27 20:41:00,
2013-02-27 12:52:00,47.0,41.0,30.27,SSW,196,1.0,-999.0,81,-99.99,,,-99.99,,2013-02-27 20:52:00,
2013-02-27 13:01:00,48.0,42.0,30.27,South,183,1.0,-999.0,80,-99.99,,,-99.99,,2013-02-27 21:01:00,
2013-02-27 13:11:00,48.0,42.0,30.27,South,183,1.0,-999.0,80,-99.99,,,-99.99,,2013-02-27 21:11:00,
2013-02-27 13:21:00,48.0,42.0,30.26,SE,138,1.0,-999.0,79,-99.99,,,-99.99,,2013-02-27 21:21:00,
2013-02-27 13:31:00,48.0,42.0,30.25,South,190,1.0,-999.0,80,-99.99,,,-99.99,,2013-02-27 21:31:00,
2013-02-27 13:41:00,48.0,42.0,30.25,South,190,1.0,-999.0,80,-99.99,,,-99.99,,2013-02-27 21:41:00,
2013-02-27 13:52:00,49.0,43.0,30.24,South,188,1.0,-999.0,79,-99.99,,,-99.99,,2013-02-27 21:52:00,
2013-02-27 14:01:00,49.0,43.0,30.24,WSW,238,0.0,-999.0,79,-99.99,,,-99.99,,2013-02-27 22:01:00,
2013-02-27 14:11:00,49.0,43.0,30.24,WSW,238,0.0,-999.0,79,-99.99,,,-99.99,,2013-02-27 22:11:00,
2013-02-27 14:21:00,48.0,43.0,30.24,South,180,0.0,-999.0,84,-99.99,,,-99.99,,2013-02-27 22:21:00,
2013-02-27 14:31:00,47.0,43.0,30.23,South,180,0.0,-999.0,87,-99.99,,,-99.99,,2013-02-27 22:31:00,
2013-02-27 14:41:00,47.0,43.0,30.23,South,180,0.0,-999.0,87,-99.99,,,-99.99,,2013-02-27 22:41:00,
2013-02-27 14:52:00,47.0,44.0,30.23,South,180,0.0,-999.0,88,-99.99,,,-99.99,,2013-02-27 22:52:00,
2013-02-27 15:01:00,47.0,43.0,30.24,South,180,0.0,-999.0,86,-99.99,,,-99.99,,2013-02-27 23:01:00,
2013-02-27 15:11:00,47.0,43.0,30.24,South,180,0.0,-999.0,86,-99.99,,,-99.99,,2013-02-27 23:11:00,
2013-02-27 15:21:00,47.0,43.0,30.24,South,180,0.0,-999.0,87,-99.99,,,-99.99,,2013-02-27 23:21:00,
2013-02-27 15:31:00,47.0,43.0,30.24,South,180,0.0,-999.0,87,-99.99,,,-99.99,,2013-02-27 23:31:00,
2013-02-27 15:42:00,47.0,43.0,30.24,South,180,0.0,-999.0,87,-99.99,,,-99.99,,2013-02-27 23:42:00,
2013-02-27 15:52:00,46.0,43.0,30.24,South,180,0.0,-999.0,88,-99.99,,,-99.99,,2013-02-27 23:52:00,
2013-02-27 16:01:00,46.0,43.0,30.24,South,180,0.0,-999.0,90,-99.99,,,-99.99,,2013-02-28 00:01:00,
2013-02-27 16:11:00,46.0,43.0,30.24,South,180,0.0,-999.0,90,-99.99,,,-99.99,,2013-02-28 00:11:00,
2013-02-27 16:21:00,46.0,44.0,30.24,South,180,0.0,-999.0,92,-99.99,,,-99.99,,2013-02-28 00:21:00,
2013-02-27 16:31:00,45.0,43.0,30.23,South,180,0.0,-999.0,93,-99.99,,,-99.99,,2013-02-28 00:31:00,
2013-02-27 16:42:00,45.0,43.0,30.23,South,180,0.0,-999.0,93,-99.99,,,-99.99,,2013-02-28 00:42:00,
2013-02-27 16:52:00,45.0,43.0,30.23,South,180,0.0,-999.0,94,-99.99,,,-99.99,,2013-02-28 00:52:00,
2013-02-27 17:01:00,45.0,43.0,30.22,South,180,0.0,-999.0,94,-99.99,,,-99.99,,2013-02-28 01:01:00,
2013-02-27 17:11:00,45.0,43.0,30.22,South,180,0.0,-999.0,94,-99.99,,,-99.99,,2013-02-28 01:11:00,
2013-02-27 17:21:00,45.0,44.0,30.23,South,180,0.0,-999.0,95,-99.99,,,-99.99,,2013-02-28 01:21:00,
2013-02-27 17:31:00,45.0,44.0,30.23,South,180,0.0,-999.0,95,-99.99,,,-99.99,,2013-02-28 01:31:00,
2013-02-27 17:41:00,45.0,44.0,30.23,South,180,0.0,-999.0,95,-99.99,,,-99.99,,2013-02-28 01:41:00,
2013-02-27 17:52:00,44.0,43.0,30.23,South,180,0.0,-999.0,95,-99.99,,,-99.99,,2013-02-28 01:52:00,
2013-02-27 18:01:00,44.0,43.0,30.23,South,180,0.0,-999.0,95,-99.99,,,-99.99,,2013-02-28 02:01:00,
2013-02-27 18:11:00,44.0,43.0,30.23,South,180,0.0,-999.0,95,-99.99,,,-99.99,,2013-02-28 02:11:00,
2013-02-27 18:21:00,44.0,43.0,30.23,South,180,0.0,-999.0,95,-99.99,,,-99.99,,2013-02-28 02:21:00,
2013-02-27 18:31:00,44.0,43.0,30.23,South,180,0.0,-999.0,96,-99.99,,,-99.99,,2013-02-28 02:31:00,
2013-02-27 18:41:00,44.0,43.0,30.23,South,180,0.0,-999.0,96,-99.99,,,-99.99,,2013-02-28 02:41:00,
2013-02-27 18:52:00,44.0,43.0,30.23,South,180,0.0,-999.0,96,-99.99,,,-99.99,,2013-02-28 02:52:00,
2013-02-27 19:01:00,44.0,43.0,30.23,South,180,0.0,-999.0,96,-99.99,,,-99.99,,2013-02-28 03:01:00,
2013-02-27 19:11:00,44.0,43.0,30.23,South,180,0.0,-999.0,96,-99.99,,,-99.99,,2013-02-28 03:11:00,
2013-02-27 19:21:00,44.0,43.0,30.23,South,180,0.0,-999.0,96,-99.99,,,-99.99,,2013-02-28 03:21:00,
2013-02-27 19:31:00,44.0,43.0,30.23,South,180,0.0,-999.0,96,-99.99,,,-99.99,,2013-02-28 03:31:00,
2013-02-27 19:41:00,44.0,43.0,30.23,South,180,0.0,-999.0,96,-99.99,,,-99.99,,2013-02-28 03:41:00,
2013-02-27 19:52:00,44.0,43.0,30.23,South,180,0.0,-999.0,96,-99.99,,,-99.99,,2013-02-28 03:52:00,
2013-02-27 20:01:00,44.0,43.0,30.23,South,180,0.0,-999.0,96,-99.99,,,-99.99,,2013-02-28 04:01:00,
2013-02-27 20:11:00,44.0,43.0,30.23,South,180,0.0,-999.0,96,-99.99,,,-99.99,,2013-02-28 04:11:00,
2013-02-27 20:21:00,44.0,43.0,30.24,South,180,0.0,-999.0,96,-99.99,,,-99.99,,2013-02-28 04:21:00,
2013-02-27 20:31:00,44.0,43.0,30.24,South,180,0.0,-999.0,96,-99.99,,,-99.99,,2013-02-28 04:31:00,
2013-02-27 20:41:00,44.0,43.0,30.24,South,180,0.0,-999.0,96,-99.99,,,-99.99,,2013-02-28 04:41:00,
2013-02-27 20:52:00,44.0,43.0,30.24,South,180,0.0,-999.0,96,-99.99,,,-99.99,,2013-02-28 04:52:00,
2013-02-27 21:01:00,43.0,42.0,30.25,South,180,0.0,-999.0,96,-99.99,,,-99.99,,2013-02-28 05:01:00,
2013-02-27 21:11:00,43.0,42.0,30.25,South,180,0.0,-999.0,96,-99.99,,,-99.99,,2013-02-28 05:11:00,
2013-02-27 21:22:00,43.0,42.0,30.24,South,180,0.0,-999.0,96,-99.99,,,-99.99,,2013-02-28 05:22:00,
2013-02-27 21:31:00,43.0,42.0,30.24,South,180,0.0,-999.0,96,-99.99,,,-99.99,,2013-02-28 05:31:00,
2013-02-27 21:42:00,43.0,42.0,30.24,South,180,0.0,-999.0,96,-99.99,,,-99.99,,2013-02-28 05:42:00,
2013-02-27 21:52:00,43.0,42.0,30.23,South,180,0.0,-999.0,96,-99.99,,,-99.99,,2013-02-28 05:52:00,
2013-02-27 22:01:00,43.0,42.0,30.23,South,180,0.0,-999.0,96,-99.99,,,-99.99,,2013-02-28 06:01:00,
2013-02-27 22:11:00,43.0,42.0,30.23,South,180,0.0,-999.0,96,-99.99,,,-99.99,,2013-02-28 06:11:00,
2013-02-27 22:22:00,43.0,42.0,30.24,South,180,0.0,-999.0,97,-99.99,,,-99.99,,2013-02-28 06:22:00,
2013-02-27 22:32:00,42.0,41.0,30.24,South,180,0.0,-999.0,96,-99.99,,,-99.99,,2013-02-28 06:32:00,
2013-02-27 22:41:00,42.0,41.0,30.24,South,180,0.0,-999.0,96,-99.99,,,-99.99,,2013-02-28 06:41:00,
2013-02-27 22:52:00,42.0,41.0,30.24,South,180,0.0,-999.0,96,-99.99,,,-99.99,,2013-02-28 06:52:00,
2013-02-27 23:01:00,42.0,41.0,30.23,South,180,0.0,-999.0,96,-99.99,,,-99.99,,2013-02-28 07:01:00,
2013-02-27 23:11:00,42.0,41.0,30.23,South,180,0.0,-999.0,96,-99.99,,,-99.99,,2013-02-28 07:11:00,
2013-02-27 23:21:00,42.0,41.0,30.24,South,180,0.0,-999.0,96,-99.99,,,-99.99,,2013-02-28 07:21:00,
2013-02-27 23:31:00,42.0,41.0,30.22,South,180,0.0,-999.0,96,-99.99,,,-99.99,,2013-02-28 07:31:00,
2013-02-27 23:41:00,42.0,41.0,30.22,South,180,0.0,-999.0,96,-99.99,,,-99.99,,2013-02-28 07:41:00,
2013-02-27 23:52:00,42.0,41.0,30.22,South,180,0.0,-999.0,96,-99.99,,,-99.99,,2013-02-28 07:52:00,